Find Globalstar M003

NORAD ID: 25165 Int'l Des: 1998-008 Owner: GLOBT Country: US Constellation: globalstar operational
LEOCIRCULAR

現在のビュー

3D地球を読み込み中...

Globalstar M003について

説明を読み込み中...

次回通過

Passes for default location (London). Set your location on the main map for personalized predictions.

高度履歴

Loading altitude history...

軌道要素

1 25165U 98008D 26149.67567130 -.00000168 00000-0 -83954-3 0 9990
2 25165 51.9833 288.7887 0007368 268.4437 277.7008 12.12009337275234
Epoch: May 29, 2026 • Age: 19 hours

現在のステータス

高度 1629.9 km
速度 7.06 km/s
衛星直下点 -17.74°S, 138.66°W
打ち上げ日 Feb 14, 1998
運用期間 28.2 years
タイプ communications

技術仕様

分類 Payload
質量 450.00 kg
乾燥質量 380.00 kg
総質量 450.00 kg
長さ 1.50 m
直径 0.60 m
スパン 12.00 m
形状 Box + 2 Pan
製造者 LOR
バスタイプ LS-400
フェーズステータス In Orbit
所有者/国 GLOBT/US

Most Searched